When you browse on this site, cookies collect data to enhance your experience and personalize the content and advertising you see.
Visit our Privacy Policy to learn more. By continuing to use the site, you agree to this use of cookies and data.
  • In Österreich
  • Länderverzeichnis
  • Für 7 Tage
  • Wassertemperatur
  • Wetterkarte
  • News
  • Widgets
  • user-avatar
    Anmelden

    Stündliche Wetter Nariño

    Heute, 23 September, Montag

    Zeit Temperatur Niederschläge Wind Luftdruck Luftfeuchtigkeit
    00:00 +26°C° 1.3 mm 1 m/S 739 mmHg 79%
    01:00 +24°C° 0 mm 0 m/S 739 mmHg 84%
    02:00 +24°C° 1.9 mm 0 m/S 739 mmHg 85%
    03:00 +23°C° 1.9 mm 0 m/S 739 mmHg 86%
    04:00 +23°C° 1.9 mm 0 m/S 739 mmHg 88%
    05:00 +23°C° 1.1 mm 0 m/S 740 mmHg 87%
    06:00 +24°C° 1.1 mm 0 m/S 740 mmHg 87%
    07:00 +24°C° 0 mm 0 m/S 740 mmHg 87%
    08:00 +27°C° 0.2 mm 1 m/S 740 mmHg 80%
    09:00 +29°C° 0.2 mm 1 m/S 740 mmHg 74%
    10:00 +30°C° 0.2 mm 1 m/S 740 mmHg 68%
    11:00 +32°C° 0.1 mm 1 m/S 739 mmHg 62%
    12:00 +34°C° 0.1 mm 2 m/S 738 mmHg 55%
    13:00 +36°C° 0.1 mm 3 m/S 737 mmHg 49%
    14:00 +36°C° 0 mm 3 m/S 736 mmHg 48%
    15:00 +36°C° 0 mm 3 m/S 736 mmHg 47%
    16:00 +36°C° 0 mm 3 m/S 736 mmHg 46%
    17:00 +34°C° 0 mm 2 m/S 736 mmHg 51%
    18:00 +32°C° 0 mm 2 m/S 737 mmHg 55%
    19:00 +30°C° 0 mm 1 m/S 737 mmHg 60%
    20:00 +30°C° 0 mm 1 m/S 738 mmHg 59%
    21:00 +29°C° 0 mm 1 m/S 738 mmHg 59%
    22:00 +29°C° 0 mm 1 m/S 739 mmHg 59%
    23:00 +28°C° 0.4 mm 1 m/S 739 mmHg 64%

    Morgen, 24 September, Dienstag

    Zeit Temperatur Niederschläge Wind Luftdruck Luftfeuchtigkeit
    00:00 +27°C° 0.4 mm 1 m/S 739 mmHg 69%
    01:00 +24°C° 0.4 mm 0 m/S 739 mmHg 74%
    02:00 +24°C° 0.6 mm 0 m/S 738 mmHg 76%
    03:00 +23°C° 0.6 mm 0 m/S 738 mmHg 79%
    04:00 +23°C° 0.6 mm 0 m/S 738 mmHg 82%
    05:00 +23°C° 0.2 mm 0 m/S 739 mmHg 82%
    06:00 +24°C° 0.2 mm 0 m/S 739 mmHg 81%
    07:00 +24°C° 0.2 mm 0 m/S 739 mmHg 81%
    08:00 +26°C° 0.1 mm 0 m/S 740 mmHg 76%
    09:00 +29°C° 0.1 mm 1 m/S 740 mmHg 71%
    10:00 +30°C° 0.1 mm 1 m/S 740 mmHg 67%
    11:00 +32°C° 0.1 mm 1 m/S 739 mmHg 60%
    12:00 +33°C° 0.1 mm 1 m/S 738 mmHg 54%
    13:00 +35°C° 0.1 mm 1 m/S 737 mmHg 47%
    14:00 +35°C° 0.1 mm 1 m/S 737 mmHg 46%
    15:00 +36°C° 0.1 mm 2 m/S 737 mmHg 46%
    16:00 +36°C° 0.1 mm 2 m/S 737 mmHg 45%
    17:00 +34°C° 0.1 mm 2 m/S 737 mmHg 51%
    18:00 +31°C° 0.1 mm 1 m/S 737 mmHg 57%
    19:00 +29°C° 0.1 mm 1 m/S 738 mmHg 62%
    20:00 +29°C° 0 mm 1 m/S 738 mmHg 63%
    21:00 +29°C° 0 mm 1 m/S 739 mmHg 63%
    22:00 +28°C° 0 mm 1 m/S 740 mmHg 63%
    23:00 +28°C° 0 mm 1 m/S 739 mmHg 65%

    übermorgen, 25 September, Mittwoch

    Zeit Temperatur Niederschläge Wind Luftdruck Luftfeuchtigkeit
    00:00 +28°C° 0 mm 1 m/S 739 mmHg 66%
    01:00 +27°C° 0 mm 1 m/S 739 mmHg 67%
    02:00 +27°C° 0.2 mm 1 m/S 739 mmHg 70%
    03:00 +27°C° 0.2 mm 1 m/S 738 mmHg 72%
    04:00 +26°C° 0.2 mm 1 m/S 738 mmHg 75%
    05:00 +26°C° 0.6 mm 1 m/S 739 mmHg 77%
    06:00 +26°C° 0.6 mm 1 m/S 739 mmHg 80%
    07:00 +26°C° 0.6 mm 1 m/S 740 mmHg 82%
    08:00 +27°C° 0.1 mm 1 m/S 740 mmHg 79%
    09:00 +28°C° 0.1 mm 1 m/S 740 mmHg 76%
    10:00 +29°C° 0.1 mm 1 m/S 740 mmHg 72%
    11:00 +31°C° 0.1 mm 2 m/S 739 mmHg 66%
    12:00 +32°C° 0.1 mm 2 m/S 738 mmHg 60%
    13:00 +34°C° 0.1 mm 2 m/S 737 mmHg 54%
    14:00 +35°C° 0 mm 2 m/S 737 mmHg 52%
    15:00 +34°C° 0 mm 1 m/S 736 mmHg 49%
    16:00 +34°C° 0 mm 1 m/S 736 mmHg 47%
    17:00 +33°C° 0.2 mm 1 m/S 736 mmHg 53%
    18:00 +31°C° 0.2 mm 1 m/S 737 mmHg 58%
    19:00 +29°C° 0.2 mm 1 m/S 737 mmHg 64%
    20:00 +29°C° 0.8 mm 1 m/S 738 mmHg 68%
    21:00 +28°C° 0.8 mm 1 m/S 739 mmHg 73%
    22:00 +27°C° 0.8 mm 1 m/S 739 mmHg 78%
    23:00 +27°C° 0.7 mm 1 m/S 739 mmHg 80%

    26 September, Donnerstag

    Zeit Temperatur Niederschläge Wind Luftdruck Luftfeuchtigkeit
    00:00 +27°C° 0.7 mm 1 m/S 739 mmHg 82%
    01:00 +26°C° 0.7 mm 1 m/S 739 mmHg 83%
    02:00 +26°C° 0.7 mm 1 m/S 738 mmHg 85%
    03:00 +24°C° 0.7 mm 0 m/S 738 mmHg 86%
    04:00 +23°C° 0.7 mm 0 m/S 738 mmHg 88%
    05:00 +23°C° 0.7 mm 0 m/S 739 mmHg 87%
    06:00 +24°C° 0.7 mm 0 m/S 739 mmHg 86%
    07:00 +24°C° 0.7 mm 0 m/S 739 mmHg 85%
    08:00 +27°C° 0.2 mm 1 m/S 739 mmHg 80%
    09:00 +29°C° 0.2 mm 1 m/S 739 mmHg 74%
    10:00 +30°C° 0.2 mm 1 m/S 739 mmHg 69%
    11:00 +32°C° 0.2 mm 2 m/S 739 mmHg 62%
    12:00 +34°C° 0.2 mm 3 m/S 738 mmHg 55%
    13:00 +36°C° 0.2 mm 4 m/S 737 mmHg 48%
    14:00 +36°C° 0.1 mm 4 m/S 737 mmHg 47%
    15:00 +36°C° 0.1 mm 4 m/S 737 mmHg 46%
    16:00 +35°C° 0.1 mm 3 m/S 736 mmHg 46%
    17:00 +34°C° 0 mm 3 m/S 737 mmHg 51%
    18:00 +31°C° 0 mm 2 m/S 737 mmHg 56%
    19:00 +29°C° 0 mm 1 m/S 737 mmHg 61%
    20:00 +29°C° 0.1 mm 1 m/S 738 mmHg 61%
    21:00 +29°C° 0.1 mm 1 m/S 739 mmHg 61%
    22:00 +29°C° 0.1 mm 1 m/S 739 mmHg 61%
    23:00 +28°C° 0.2 mm 1 m/S 739 mmHg 67%

    27 September, Freitag

    Zeit Temperatur Niederschläge Wind Luftdruck Luftfeuchtigkeit
    00:00 +27°C° 0.2 mm 1 m/S 739 mmHg 73%
    01:00 +26°C° 0.2 mm 1 m/S 738 mmHg 79%
    02:00 +26°C° 0.2 mm 1 m/S 738 mmHg 82%
    03:00 +25°C° 0.2 mm 1 m/S 738 mmHg 85%
    04:00 +25°C° 0.2 mm 1 m/S 738 mmHg 88%
    05:00 +26°C° 0.1 mm 1 m/S 738 mmHg 87%
    06:00 +26°C° 0.1 mm 1 m/S 739 mmHg 85%
    07:00 +26°C° 0.1 mm 1 m/S 740 mmHg 83%
    08:00 +28°C° 0 mm 1 m/S 739 mmHg 77%
    09:00 +30°C° 0 mm 1 m/S 739 mmHg 71%
    10:00 +31°C° 0 mm 1 m/S 739 mmHg 65%
    11:00 +32°C° 0.1 mm 1 m/S 738 mmHg 60%
    12:00 +34°C° 0.1 mm 1 m/S 738 mmHg 55%
    13:00 +35°C° 0.1 mm 1 m/S 737 mmHg 50%
    14:00 +35°C° 0.1 mm 1 m/S 736 mmHg 49%
    15:00 +35°C° 0.1 mm 1 m/S 736 mmHg 48%
    16:00 +36°C° 0.1 mm 2 m/S 736 mmHg 46%
    17:00 +34°C° 0.2 mm 2 m/S 736 mmHg 53%
    18:00 +31°C° 0.2 mm 2 m/S 737 mmHg 60%
    19:00 +30°C° 0.2 mm 2 m/S 737 mmHg 66%
    20:00 +29°C° 0.2 mm 2 m/S 737 mmHg 69%
    21:00 +28°C° 0.2 mm 2 m/S 738 mmHg 71%
    22:00 +27°C° 0.2 mm 1 m/S 738 mmHg 73%
    23:00 +27°C° 0.5 mm 1 m/S 738 mmHg 76%

    28 September, Samstag

    Zeit Temperatur Niederschläge Wind Luftdruck Luftfeuchtigkeit
    00:00 +26°C° 0.5 mm 1 m/S 738 mmHg 79%
    01:00 +26°C° 0.5 mm 1 m/S 738 mmHg 82%
    02:00 +25°C° 0.2 mm 1 m/S 738 mmHg 83%
    03:00 +23°C° 0.2 mm 0 m/S 738 mmHg 84%
    04:00 +23°C° 0.2 mm 0 m/S 737 mmHg 85%
    05:00 +23°C° 0.1 mm 0 m/S 738 mmHg 83%
    06:00 +24°C° 0.1 mm 0 m/S 738 mmHg 82%
    07:00 +24°C° 0.1 mm 0 m/S 739 mmHg 80%
    08:00 +26°C° 0 mm 0 m/S 739 mmHg 74%
    09:00 +30°C° 0 mm 1 m/S 739 mmHg 68%
    10:00 +32°C° 0 mm 1 m/S 739 mmHg 61%
    11:00 +33°C° 0.1 mm 1 m/S 738 mmHg 57%
    12:00 +34°C° 0.1 mm 1 m/S 737 mmHg 52%
    13:00 +35°C° 0.1 mm 1 m/S 736 mmHg 47%
    14:00 +35°C° 0.1 mm 1 m/S 736 mmHg 46%
    15:00 +35°C° 0.1 mm 1 m/S 735 mmHg 46%
    16:00 +36°C° 0.1 mm 2 m/S 735 mmHg 46%
    17:00 +34°C° 0.2 mm 1 m/S 735 mmHg 52%
    18:00 +32°C° 0.2 mm 1 m/S 736 mmHg 59%
    19:00 +30°C° 0.2 mm 1 m/S 736 mmHg 66%
    20:00 +29°C° 0.5 mm 1 m/S 737 mmHg 69%
    21:00 +29°C° 0.5 mm 1 m/S 737 mmHg 72%
    22:00 +28°C° 0.5 mm 1 m/S 738 mmHg 75%
    23:00 +27°C° 0.9 mm 1 m/S 738 mmHg 77%
    Mehr zeigen